| time (UTC) | temp F | wind direction | speed MPH | gust MPH | rain 1hr in | rain 24hr in | rain mn in | humidity % | barometer mb |
| 20260903055403 | 74 | 349 | 0.0 | 0.0 | 0.00 | 0.00 | 0.00 | 88 | 1017.0 |
| 20260903054904 | 74 | 349 | 0.0 | 0.0 | 0.00 | 0.00 | 0.00 | 88 | 1017.0 |
| 20260903054403 | 75 | 349 | 0.0 | 0.0 | 0.00 | 0.00 | 0.00 | 88 | 1017.0 |
| 20260903053903 | 75 | 349 | 0.0 | 0.0 | 0.00 | 0.00 | 0.00 | 88 | 1017.0 |
| 20260903053404 | 75 | 349 | 0.0 | 0.0 | 0.00 | 0.00 | 0.00 | 88 | 1017.0 |
| 20260903052903 | 75 | 349 | 0.0 | 0.0 | 0.00 | 0.00 | 0.00 | 88 | 1017.0 |
| 20260903052402 | 75 | 349 | 0.0 | 0.0 | 0.00 | 0.00 | 0.00 | 88 | 1017.0 |
| 20260903051404 | 75 | 349 | 0.0 | 0.0 | 0.00 | 0.00 | 0.00 | 87 | 1017.0 |
| 20260903045904 | 75 | 349 | 0.0 | 0.0 | 0.00 | 0.00 | 0.00 | 87 | 1017.2 |
| 20260903045403 | 75 | 349 | 0.0 | 0.0 | 0.00 | 0.00 | 0.00 | 86 | 1017.2 |
| 20260903044903 | 75 | 349 | 0.0 | 0.0 | 0.00 | 0.00 | 0.00 | 86 | 1017.2 |
| 20260903044403 | 75 | 349 | 0.0 | 0.0 | 0.00 | 0.00 | 0.00 | 86 | 1017.1 |
| 20260903043904 | 75 | 349 | 0.0 | 0.0 | 0.00 | 0.00 | 0.00 | 86 | 1017.1 |
| 20260903043403 | 76 | 349 | 0.0 | 0.0 | 0.00 | 0.00 | 0.00 | 86 | 1017.1 |
| 20260903042903 | 76 | 349 | 0.0 | 0.0 | 0.00 | 0.00 | 0.00 | 86 | 1017.2 |
| 20260903042405 | 76 | 349 | 0.0 | 0.0 | 0.00 | 0.00 | 0.00 | 85 | 1017.2 |
| 20260903041902 | 76 | 349 | 0.0 | 0.0 | 0.00 | 0.00 | 0.00 | 85 | 1017.1 |
| 20260903041403 | 76 | 349 | 0.0 | 0.0 | 0.00 | 0.00 | 0.00 | 85 | 1017.1 |
| 20260903040904 | 76 | 349 | 0.0 | 0.0 | 0.00 | 0.00 | 0.00 | 85 | 1017.1 |
| 20260903040403 | 76 | 349 | 0.0 | 0.0 | 0.00 | 0.00 | 0.00 | 85 | 1017.1 |
| 20260903035903 | 76 | 349 | 0.0 | 0.0 | 0.00 | 0.00 | 0.00 | 85 | 1017.2 |
| 20260903034903 | 76 | 349 | 0.0 | 0.0 | 0.00 | 0.00 | 0.00 | 84 | 1017.2 |
| 20260903034403 | 76 | 349 | 0.0 | 0.0 | 0.00 | 0.00 | 0.00 | 84 | 1017.3 |
| 20260903033904 | 77 | 349 | 0.0 | 0.0 | 0.00 | 0.00 | 0.00 | 84 | 1017.3 |
| 20260903033403 | 77 | 349 | 0.0 | 0.0 | 0.00 | 0.00 | 0.00 | 83 | 1017.3 |
| 20260903032903 | 77 | 349 | 0.0 | 0.0 | 0.00 | 0.00 | 0.00 | 83 | 1017.3 |
| 20260903031903 | 77 | 349 | 0.0 | 0.0 | 0.00 | 0.00 | 0.00 | 82 | 1017.3 |
| 20260903031403 | 77 | 349 | 0.0 | 0.0 | 0.00 | 0.00 | 0.00 | 82 | 1017.3 |
| 20260903030403 | 77 | 349 | 0.0 | 0.0 | 0.00 | 0.00 | 0.00 | 82 | 1017.4 |
| 20260903025903 | 77 | 349 | 0.0 | 0.0 | 0.00 | 0.00 | 0.00 | 81 | 1017.2 |
| 20260903025404 | 78 | 349 | 0.0 | 0.0 | 0.00 | 0.00 | 0.00 | 81 | 1017.2 |
| 20260903024903 | 78 | 349 | 0.0 | 0.0 | 0.00 | 0.00 | 0.00 | 81 | 1017.2 |
| 20260903024404 | 78 | 349 | 0.0 | 0.0 | 0.00 | 0.00 | 0.00 | 79 | 1017.2 |
| 20260903023904 | 78 | 348 | 0.0 | 0.0 | 0.00 | 0.00 | 0.00 | 79 | 1017.2 |
| 20260903023403 | 78 | 349 | 0.0 | 0.0 | 0.00 | 0.00 | 0.00 | 79 | 1017.2 |
| 20260903022903 | 78 | 349 | 0.0 | 0.0 | 0.00 | 0.00 | 0.00 | 79 | 1017.1 |
| 20260903022404 | 78 | 349 | 0.0 | 0.0 | 0.00 | 0.00 | 0.00 | 79 | 1017.1 |
| 20260903021904 | 78 | 349 | 0.0 | 0.0 | 0.00 | 0.00 | 0.00 | 79 | 1017.1 |
| 20260903021403 | 79 | 349 | 0.0 | 0.0 | 0.00 | 0.00 | 0.00 | 78 | 1017.0 |
| 20260903020903 | 79 | 349 | 0.0 | 0.0 | 0.00 | 0.00 | 0.00 | 78 | 1017.0 |
| 20260903020404 | 79 | 349 | 0.0 | 0.0 | 0.00 | 0.00 | 0.00 | 78 | 1017.0 |
| 20260903015904 | 79 | 349 | 0.0 | 0.0 | 0.00 | 0.00 | 0.00 | 77 | 1016.9 |
| 20260903015403 | 79 | 349 | 0.0 | 0.0 | 0.00 | 0.00 | 0.00 | 77 | 1016.9 |
| 20260903014904 | 79 | 349 | 0.0 | 0.0 | 0.00 | 0.00 | 0.00 | 77 | 1016.9 |
| 20260903014403 | 79 | 349 | 0.0 | 0.0 | 0.00 | 0.00 | 0.00 | 78 | 1016.8 |
| 20260903013903 | 80 | 349 | 0.0 | 0.0 | 0.00 | 0.00 | 0.00 | 76 | 1016.8 |
| 20260903013404 | 80 | 349 | 0.0 | 0.0 | 0.00 | 0.00 | 0.00 | 77 | 1016.8 |
| 20260903012403 | 80 | 349 | 0.0 | 1.0 | 0.00 | 0.00 | 0.00 | 76 | 1016.6 |
| 20260903011905 | 80 | 349 | 0.0 | 1.0 | 0.00 | 0.00 | 0.00 | 75 | 1016.6 |
| 20260903011403 | 81 | 349 | 0.0 | 1.0 | 0.00 | 0.00 | 0.00 | 75 | 1016.5 |
| 20260903010903 | 81 | 349 | 1.0 | 1.0 | 0.00 | 0.00 | 0.00 | 75 | 1016.5 |
| 20260903005903 | 81 | 349 | 0.0 | 0.0 | 0.00 | 0.00 | 0.00 | 73 | 1016.5 |
| 20260903005403 | 82 | 349 | 0.0 | 1.0 | 0.00 | 0.00 | 0.00 | 73 | 1016.5 |
| 20260903004905 | 82 | 348 | 0.0 | 1.0 | 0.00 | 0.00 | 0.00 | 74 | 1016.5 |
| 20260903004403 | 82 | 349 | 0.0 | 1.0 | 0.00 | 0.00 | 0.00 | 72 | 1016.3 |
| 20260903003405 | 83 | 349 | 0.0 | 0.0 | 0.00 | 0.00 | 0.00 | 71 | 1016.3 |
| 20260903002903 | 83 | 349 | 0.0 | 0.0 | 0.00 | 0.00 | 0.00 | 68 | 1016.3 |
| 20260903002403 | 84 | 349 | 0.0 | 1.0 | 0.00 | 0.00 | 0.00 | 68 | 1016.3 |
| 20260903001904 | 84 | 348 | 0.0 | 1.0 | 0.00 | 0.00 | 0.00 | 68 | 1016.3 |
| 20260903001403 | 84 | 349 | 0.0 | 1.0 | 0.00 | 0.00 | 0.00 | 67 | 1016.2 |
| 20260903000903 | 85 | 349 | 0.0 | 1.0 | 0.00 | 0.00 | 0.00 | 67 | 1016.2 |
| 20260903000404 | 85 | 349 | 0.0 | 0.0 | 0.00 | 0.00 | 0.00 | 66 | 1016.2 |
| 20260902235904 | 86 | 349 | 0.0 | 0.0 | 0.00 | 0.00 | 0.00 | 66 | 1016.2 |
| 20260902235403 | 86 | 349 | 0.0 | 0.0 | 0.00 | 0.00 | 0.00 | 66 | 1016.2 |
| 20260902234905 | 86 | 348 | 0.0 | 0.0 | 0.00 | 0.00 | 0.00 | 67 | 1016.2 |
| 20260902234403 | 87 | 348 | 0.0 | 0.0 | 0.00 | 0.00 | 0.00 | 66 | 1016.2 |
| 20260902233904 | 87 | 348 | 0.0 | 0.0 | 0.00 | 0.00 | 0.00 | 65 | 1016.2 |
| 20260902233404 | 88 | 348 | 0.0 | 0.0 | 0.00 | 0.00 | 0.00 | 64 | 1016.2 |
| 20260902232903 | 88 | 348 | 0.0 | 1.0 | 0.00 | 0.00 | 0.00 | 64 | 1016.2 |
| 20260902232403 | 88 | 348 | 0.0 | 0.0 | 0.00 | 0.00 | 0.00 | 63 | 1016.2 |
| 20260902230904 | 90 | 348 | 0.0 | 0.0 | 0.00 | 0.00 | 0.00 | 60 | 1016.2 |
| 20260902225404 | 91 | 348 | 0.0 | 1.0 | 0.00 | 0.00 | 0.00 | 58 | 1016.2 |
| 20260902224904 | 92 | 348 | 0.0 | 0.0 | 0.00 | 0.00 | 0.00 | 57 | 1016.2 |
| 20260902223903 | 92 | 348 | 0.0 | 0.0 | 0.00 | 0.00 | 0.00 | 56 | 1016.2 |
| 20260902223405 | 93 | 348 | 0.0 | 0.0 | 0.00 | 0.00 | 0.00 | 57 | 1016.2 |
| 20260902222403 | 95 | 348 | 0.0 | 0.0 | 0.00 | 0.00 | 0.00 | 53 | 1016.1 |
| 20260902221905 | 96 | 348 | 0.0 | 0.0 | 0.00 | 0.00 | 0.00 | 51 | 1016.2 |
| 20260902221403 | 96 | 348 | 0.0 | 0.0 | 0.00 | 0.00 | 0.00 | 52 | 1016.3 |
| 20260902220903 | 97 | 348 | 0.0 | 0.0 | 0.00 | 0.00 | 0.00 | 52 | 1016.4 |
| 20260902220404 | 97 | 349 | 0.0 | 0.0 | 0.00 | 0.00 | 0.00 | 52 | 1016.4 |
| 20260902215903 | 97 | 349 | 0.0 | 0.0 | 0.00 | 0.00 | 0.00 | 51 | 1016.4 |
| 20260902215403 | 97 | 348 | 0.0 | 0.0 | 0.00 | 0.00 | 0.00 | 52 | 1016.4 |
| 20260902214904 | 98 | 348 | 0.0 | 0.0 | 0.00 | 0.00 | 0.00 | 50 | 1016.4 |
| 20260902214404 | 98 | 348 | 0.0 | 0.0 | 0.00 | 0.00 | 0.00 | 50 | 1016.4 |
| 20260902213904 | 99 | 348 | 0.0 | 0.0 | 0.00 | 0.00 | 0.00 | 48 | 1016.4 |
| 20260902213404 | 99 | 349 | 0.0 | 0.0 | 0.00 | 0.00 | 0.00 | 49 | 1016.4 |
| 20260902212904 | 99 | 348 | 0.0 | 0.0 | 0.00 | 0.00 | 0.00 | 49 | 1016.5 |
| 20260902212403 | 100 | 349 | 0.0 | 0.0 | 0.00 | 0.00 | 0.00 | 49 | 1016.5 |
| 20260902211403 | 100 | 348 | 0.0 | 2.0 | 0.00 | 0.00 | 0.00 | 47 | 1016.6 |
| 20260902210903 | 100 | 349 | 1.0 | 2.0 | 0.00 | 0.00 | 0.00 | 48 | 1016.6 |
| 20260902210405 | 100 | 348 | 1.0 | 2.0 | 0.00 | 0.00 | 0.00 | 47 | 1016.6 |
| 20260902205903 | 100 | 222 | 1.0 | 2.0 | 0.00 | 0.00 | 0.00 | 43 | 1016.6 |
| 20260902204904 | 99 | 19 | 0.0 | 2.0 | 0.00 | 0.00 | 0.00 | 45 | 1016.6 |
| 20260902204403 | 100 | 18 | 0.0 | 2.0 | 0.00 | 0.00 | 0.00 | 47 | 1016.7 |
| 20260902203903 | 100 | 117 | 0.0 | 1.0 | 0.00 | 0.00 | 0.00 | 46 | 1016.7 |
| 20260902203405 | 99 | 117 | 0.0 | 1.0 | 0.00 | 0.00 | 0.00 | 46 | 1017.1 |
| 20260902202403 | 100 | 111 | 1.0 | 2.0 | 0.00 | 0.00 | 0.00 | 41 | 1017.1 |
| 20260902201905 | 100 | 22 | 0.0 | 1.0 | 0.00 | 0.00 | 0.00 | 43 | 1017.1 |
| 20260902201403 | 100 | 23 | 0.0 | 1.0 | 0.00 | 0.00 | 0.00 | 44 | 1017.1 |
| 20260902200904 | 99 | 6 | 0.0 | 3.0 | 0.00 | 0.00 | 0.00 | 45 | 1017.1 |
| 20260902200404 | 100 | 46 | 1.0 | 3.0 | 0.00 | 0.00 | 0.00 | 41 | 1017.3 |
| 20260902195903 | 99 | 5 | 1.0 | 3.0 | 0.00 | 0.00 | 0.00 | 47 | 1017.3 |
| 20260902195404 | 99 | 35 | 1.0 | 3.0 | 0.00 | 0.00 | 0.00 | 45 | 1017.3 |
| 20260902194904 | 99 | 240 | 2.0 | 3.0 | 0.00 | 0.00 | 0.00 | 42 | 1017.3 |
| 20260902194404 | 99 | 119 | 2.0 | 3.0 | 0.00 | 0.00 | 0.00 | 41 | 1017.7 |
| 20260902193903 | 99 | 277 | 1.0 | 2.0 | 0.00 | 0.00 | 0.00 | 43 | 1017.7 |
| 20260902193405 | 98 | 355 | 1.0 | 1.0 | 0.00 | 0.00 | 0.00 | 43 | 1017.7 |
| 20260902192904 | 98 | 355 | 0.0 | 2.0 | 0.00 | 0.00 | 0.00 | 43 | 1017.7 |
| 20260902192403 | 97 | 77 | 1.0 | 2.0 | 0.00 | 0.00 | 0.00 | 43 | 1017.7 |
| 20260902191904 | 97 | 34 | 1.0 | 3.0 | 0.00 | 0.00 | 0.00 | 46 | 1017.7 |
| 20260902191404 | 96 | 74 | 2.0 | 3.0 | 0.00 | 0.00 | 0.00 | 47 | 1018.1 |
| 20260902190904 | 96 | 82 | 0.0 | 2.0 | 0.00 | 0.00 | 0.00 | 45 | 1018.1 |
| 20260902190405 | 96 | 64 | 2.0 | 3.0 | 0.00 | 0.00 | 0.00 | 45 | 1018.1 |
| 20260902185904 | 96 | 114 | 2.0 | 5.0 | 0.00 | 0.00 | 0.00 | 45 | 1018.1 |
| 20260902185403 | 97 | 123 | 2.0 | 6.0 | 0.00 | 0.00 | 0.00 | 45 | 1018.1 |
| 20260902184905 | 97 | 124 | 1.0 | 3.0 | 0.00 | 0.00 | 0.00 | 46 | 1018.1 |
| 20260902183904 | 96 | 34 | 1.0 | 3.0 | 0.00 | 0.00 | 0.00 | 47 | 1018.2 |
| 20260902183404 | 96 | 34 | 2.0 | 3.0 | 0.00 | 0.00 | 0.00 | 49 | 1018.2 |
| 20260902182903 | 97 | 107 | 2.0 | 6.0 | 0.00 | 0.00 | 0.00 | 48 | 1018.2 |
| 20260902182404 | 97 | 86 | 1.0 | 3.0 | 0.00 | 0.00 | 0.00 | 50 | 1018.3 |
| 20260902181903 | 96 | 198 | 2.0 | 5.0 | 0.00 | 0.00 | 0.00 | 48 | 1018.3 |
| 20260902180904 | 96 | 5 | 2.0 | 3.0 | 0.00 | 0.00 | 0.00 | 48 | 1018.4 |
| 20260902180403 | 95 | 29 | 1.0 | 3.0 | 0.00 | 0.00 | 0.00 | 52 | 1018.4 |
| 20260902175403 | 95 | 121 | 3.0 | 7.0 | 0.00 | 0.00 | 0.00 | 49 | 1018.6 |
| 20260902174904 | 95 | 161 | 2.0 | 5.0 | 0.00 | 0.00 | 0.00 | 49 | 1018.6 |
| 20260902173903 | 95 | 17 | 1.0 | 3.0 | 0.00 | 0.00 | 0.00 | 49 | 1018.8 |
| 20260902172904 | 94 | 91 | 1.0 | 3.0 | 0.00 | 0.00 | 0.00 | 51 | 1019.1 |
| 20260902172404 | 95 | 83 | 1.0 | 2.0 | 0.00 | 0.00 | 0.00 | 50 | 1019.1 |
| 20260902171904 | 95 | 279 | 1.0 | 3.0 | 0.00 | 0.00 | 0.00 | 53 | 1019.1 |
| 20260902171404 | 95 | 356 | 1.0 | 3.0 | 0.00 | 0.00 | 0.00 | 53 | 1019.3 |
| 20260902170904 | 94 | 58 | 1.0 | 2.0 | 0.00 | 0.00 | 0.00 | 54 | 1019.3 |
| 20260902170403 | 94 | 196 | 2.0 | 3.0 | 0.00 | 0.00 | 0.00 | 51 | 1019.3 |
| 20260902165905 | 94 | 345 | 2.0 | 3.0 | 0.00 | 0.00 | 0.00 | 53 | 1019.4 |
| 20260902165404 | 93 | 322 | 2.0 | 5.0 | 0.00 | 0.00 | 0.00 | 54 | 1019.6 |
| 20260902164904 | 93 | 31 | 3.0 | 5.0 | 0.00 | 0.00 | 0.00 | 55 | 1019.6 |
| 20260902163903 | 93 | 96 | 2.0 | 3.0 | 0.00 | 0.00 | 0.00 | 57 | 1019.6 |
| 20260902163404 | 94 | 158 | 2.0 | 3.0 | 0.00 | 0.00 | 0.00 | 55 | 1019.7 |
| 20260902162904 | 94 | 262 | 1.0 | 3.0 | 0.00 | 0.00 | 0.00 | 59 | 1019.7 |
| 20260902162404 | 93 | 0 | 0.0 | 2.0 | 0.00 | 0.00 | 0.00 | 58 | 1019.7 |
| 20260902160903 | 91 | 232 | 2.0 | 6.0 | 0.00 | 0.00 | 0.00 | 61 | 1019.8 |
| 20260902160404 | 90 | 333 | 3.0 | 6.0 | 0.00 | 0.00 | 0.00 | 62 | 1019.8 |
| 20260902154903 | 92 | 5 | 1.0 | 3.0 | 0.00 | 0.00 | 0.00 | 60 | 1020.1 |
| 20260902153404 | 90 | 31 | 1.0 | 5.0 | 0.00 | 0.00 | 0.00 | 61 | 1020.1 |
| 20260902152905 | 90 | 246 | 3.0 | 5.0 | 0.00 | 0.00 | 0.00 | 60 | 1020.1 |
| 20260902152404 | 90 | 130 | 2.0 | 5.0 | 0.00 | 0.00 | 0.00 | 65 | 1020.1 |
| 20260902151903 | 89 | 132 | 2.0 | 5.0 | 0.00 | 0.00 | 0.00 | 64 | 1020.1 |
| 20260902150904 | 89 | 17 | 1.0 | 3.0 | 0.00 | 0.00 | 0.00 | 67 | 1020.1 |
| 20260902145905 | 88 | 355 | 1.0 | 2.0 | 0.00 | 0.00 | 0.00 | 68 | 1020.1 |
| 20260902145403 | 88 | 70 | 1.0 | 3.0 | 0.00 | 0.00 | 0.00 | 67 | 1020.1 |
| 20260902144904 | 88 | 67 | 1.0 | 3.0 | 0.00 | 0.00 | 0.00 | 69 | 1020.1 |
| 20260902143905 | 86 | 138 | 1.0 | 3.0 | 0.00 | 0.00 | 0.00 | 69 | 1020.1 |
| 20260902143404 | 86 | 111 | 1.0 | 3.0 | 0.00 | 0.00 | 0.00 | 70 | 1020.1 |
| 20260902142904 | 86 | 72 | 0.0 | 1.0 | 0.00 | 0.00 | 0.00 | 70 | 1020.2 |
| 20260902142405 | 85 | 138 | 2.0 | 3.0 | 0.00 | 0.00 | 0.00 | 71 | 1020.2 |
| 20260902141904 | 85 | 113 | 1.0 | 2.0 | 0.00 | 0.00 | 0.00 | 71 | 1020.2 |
| 20260902141403 | 84 | 113 | 1.0 | 3.0 | 0.00 | 0.00 | 0.00 | 72 | 1020.2 |
| 20260902140905 | 84 | 113 | 0.0 | 1.0 | 0.00 | 0.00 | 0.00 | 72 | 1020.2 |
| 20260902140404 | 84 | 113 | 0.0 | 2.0 | 0.00 | 0.00 | 0.00 | 72 | 1020.2 |
| 20260902135405 | 83 | 113 | 0.0 | 1.0 | 0.00 | 0.00 | 0.00 | 74 | 1020.1 |
| 20260902134403 | 83 | 141 | 2.0 | 3.0 | 0.00 | 0.00 | 0.00 | 75 | 1020.2 |
| 20260902133904 | 82 | 67 | 1.0 | 2.0 | 0.00 | 0.00 | 0.00 | 77 | 1020.2 |
| 20260902133405 | 81 | 67 | 0.0 | 2.0 | 0.00 | 0.00 | 0.00 | 78 | 1020.2 |
| 20260902132903 | 80 | 67 | 0.0 | 1.0 | 0.00 | 0.00 | 0.00 | 80 | 1020.2 |
| 20260902132404 | 79 | 67 | 1.0 | 2.0 | 0.00 | 0.00 | 0.00 | 82 | 1020.2 |
| 20260902131904 | 78 | 67 | 1.0 | 2.0 | 0.00 | 0.00 | 0.00 | 83 | 1020.1 |
| 20260902131404 | 77 | 69 | 0.0 | 1.0 | 0.00 | 0.00 | 0.00 | 86 | 1020.1 |
| 20260902130904 | 76 | 69 | 1.0 | 2.0 | 0.00 | 0.00 | 0.00 | 88 | 1020.1 |
| 20260902130405 | 75 | 69 | 1.0 | 2.0 | 0.00 | 0.00 | 0.00 | 91 | 1020.1 |
| 20260902125404 | 73 | 355 | 0.0 | 1.0 | 0.00 | 0.00 | 0.00 | 93 | 1020.0 |
| 20260902124906 | 73 | 355 | 0.0 | 0.0 | 0.00 | 0.00 | 0.00 | 93 | 1020.0 |
| 20260902124404 | 72 | 355 | 0.0 | 0.0 | 0.00 | 0.00 | 0.00 | 94 | 1020.0 |
| 20260902123904 | 72 | 355 | 0.0 | 0.0 | 0.00 | 0.00 | 0.00 | 94 | 1020.0 |
| 20260902123405 | 72 | 355 | 0.0 | 0.0 | 0.00 | 0.00 | 0.00 | 94 | 1020.0 |
| 20260902122904 | 71 | 355 | 0.0 | 0.0 | 0.00 | 0.00 | 0.00 | 94 | 1019.9 |
| 20260902122404 | 71 | 355 | 0.0 | 0.0 | 0.00 | 0.00 | 0.00 | 94 | 1019.4 |
| 20260902121904 | 71 | 355 | 0.0 | 0.0 | 0.00 | 0.00 | 0.00 | 94 | 1019.4 |
| 20260902121404 | 71 | 355 | 0.0 | 0.0 | 0.00 | 0.00 | 0.00 | 94 | 1019.4 |
| 20260902120402 | 70 | 355 | 0.0 | 0.0 | 0.00 | 0.00 | 0.00 | 93 | 1019.4 |
| 20260902115904 | 70 | 355 | 0.0 | 0.0 | 0.00 | 0.00 | 0.00 | 93 | 1019.4 |
| 20260902115402 | 70 | 355 | 0.0 | 0.0 | 0.00 | 0.00 | 0.00 | 93 | 1019.4 |
| 20260902114903 | 70 | 355 | 0.0 | 0.0 | 0.00 | 0.00 | 0.00 | 93 | 1019.4 |
| 20260902113903 | 70 | 355 | 0.0 | 0.0 | 0.00 | 0.00 | 0.00 | 93 | 1019.3 |
| 20260902113402 | 70 | 355 | 0.0 | 0.0 | 0.00 | 0.00 | 0.00 | 93 | 1019.3 |
| 20260902112403 | 70 | 355 | 0.0 | 0.0 | 0.00 | 0.00 | 0.00 | 93 | 1019.2 |
| 20260902111902 | 70 | 355 | 0.0 | 0.0 | 0.00 | 0.00 | 0.00 | 93 | 1019.1 |
| 20260902111402 | 70 | 355 | 0.0 | 0.0 | 0.00 | 0.00 | 0.00 | 93 | 1018.9 |
| 20260902110904 | 70 | 355 | 0.0 | 0.0 | 0.00 | 0.00 | 0.00 | 92 | 1018.9 |
| 20260902110403 | 70 | 355 | 0.0 | 0.0 | 0.00 | 0.00 | 0.00 | 92 | 1018.9 |
| 20260902105902 | 70 | 355 | 0.0 | 0.0 | 0.00 | 0.00 | 0.00 | 92 | 1018.9 |
| 20260902105404 | 70 | 355 | 0.0 | 0.0 | 0.00 | 0.00 | 0.00 | 92 | 1018.9 |
| 20260902104903 | 70 | 355 | 0.0 | 0.0 | 0.00 | 0.00 | 0.00 | 92 | 1018.9 |
| 20260902104402 | 70 | 355 | 0.0 | 0.0 | 0.00 | 0.00 | 0.00 | 92 | 1018.6 |
| 20260902103904 | 70 | 355 | 0.0 | 0.0 | 0.00 | 0.00 | 0.00 | 92 | 1018.6 |
| 20260902103403 | 70 | 355 | 0.0 | 0.0 | 0.00 | 0.00 | 0.00 | 92 | 1018.6 |
| 20260902102902 | 70 | 355 | 0.0 | 0.0 | 0.00 | 0.00 | 0.00 | 92 | 1018.6 |
| 20260902102404 | 70 | 355 | 0.0 | 1.0 | 0.00 | 0.00 | 0.00 | 92 | 1018.6 |
| 20260902100904 | 70 | 355 | 0.0 | 1.0 | 0.00 | 0.00 | 0.00 | 92 | 1018.6 |
| 20260902100402 | 70 | 355 | 0.0 | 1.0 | 0.00 | 0.00 | 0.00 | 92 | 1018.5 |
| 20260902095404 | 71 | 355 | 0.0 | 0.0 | 0.00 | 0.00 | 0.00 | 92 | 1018.2 |
| 20260902094902 | 71 | 355 | 0.0 | 0.0 | 0.00 | 0.00 | 0.00 | 92 | 1018.2 |
| 20260902094402 | 71 | 355 | 0.0 | 0.0 | 0.00 | 0.00 | 0.00 | 92 | 1018.2 |
| 20260902093904 | 71 | 355 | 0.0 | 0.0 | 0.00 | 0.00 | 0.00 | 92 | 1018.2 |
| 20260902093403 | 71 | 355 | 0.0 | 0.0 | 0.00 | 0.00 | 0.00 | 92 | 1018.2 |
| 20260902092903 | 71 | 355 | 0.0 | 0.0 | 0.00 | 0.00 | 0.00 | 92 | 1018.2 |
| 20260902091902 | 71 | 355 | 0.0 | 0.0 | 0.00 | 0.00 | 0.00 | 92 | 1018.2 |
| 20260902091402 | 71 | 355 | 0.0 | 0.0 | 0.00 | 0.00 | 0.00 | 91 | 1018.2 |
| 20260902090904 | 71 | 355 | 0.0 | 0.0 | 0.00 | 0.00 | 0.00 | 92 | 1018.2 |
| 20260902090403 | 71 | 355 | 0.0 | 0.0 | 0.00 | 0.00 | 0.00 | 91 | 1018.2 |
| 20260902085903 | 71 | 355 | 0.0 | 0.0 | 0.00 | 0.00 | 0.00 | 91 | 1018.1 |
| 20260902085403 | 71 | 355 | 0.0 | 0.0 | 0.00 | 0.00 | 0.00 | 91 | 1018.1 |
| 20260902084902 | 71 | 355 | 0.0 | 0.0 | 0.00 | 0.00 | 0.00 | 91 | 1018.1 |
| 20260902084402 | 71 | 355 | 0.0 | 0.0 | 0.00 | 0.00 | 0.00 | 91 | 1018.0 |
| 20260902083903 | 71 | 355 | 0.0 | 0.0 | 0.00 | 0.00 | 0.00 | 91 | 1018.0 |
| 20260902083403 | 71 | 355 | 0.0 | 0.0 | 0.00 | 0.00 | 0.00 | 91 | 1017.9 |
| 20260902082902 | 71 | 355 | 0.0 | 0.0 | 0.00 | 0.00 | 0.00 | 91 | 1017.8 |
| 20260902082404 | 71 | 355 | 0.0 | 0.0 | 0.00 | 0.00 | 0.00 | 91 | 1017.8 |
| 20260902081403 | 71 | 355 | 0.0 | 0.0 | 0.00 | 0.00 | 0.00 | 91 | 1017.7 |
| 20260902080403 | 71 | 355 | 0.0 | 0.0 | 0.00 | 0.00 | 0.00 | 91 | 1017.7 |
| 20260902075902 | 71 | 355 | 0.0 | 0.0 | 0.00 | 0.00 | 0.00 | 91 | 1017.8 |
| 20260902075404 | 72 | 355 | 0.0 | 1.0 | 0.00 | 0.00 | 0.00 | 91 | 1017.8 |
| 20260902074903 | 72 | 355 | 0.0 | 0.0 | 0.00 | 0.00 | 0.00 | 91 | 1017.8 |
| 20260902074402 | 72 | 355 | 0.0 | 1.0 | 0.00 | 0.00 | 0.00 | 91 | 1017.8 |
| 20260902073904 | 72 | 355 | 0.0 | 1.0 | 0.00 | 0.00 | 0.00 | 90 | 1017.8 |
| 20260902072903 | 72 | 355 | 0.0 | 0.0 | 0.00 | 0.00 | 0.00 | 90 | 1017.8 |
| 20260902072404 | 72 | 355 | 0.0 | 1.0 | 0.00 | 0.00 | 0.00 | 90 | 1017.8 |
| 20260902071902 | 72 | 355 | 1.0 | 1.0 | 0.00 | 0.00 | 0.00 | 90 | 1017.8 |
| 20260902071402 | 72 | 355 | 0.0 | 0.0 | 0.00 | 0.00 | 0.00 | 90 | 1017.9 |
| 20260902070904 | 72 | 355 | 0.0 | 0.0 | 0.00 | 0.00 | 0.00 | 90 | 1017.9 |
| 20260902065903 | 72 | 355 | 0.0 | 1.0 | 0.00 | 0.00 | 0.00 | 90 | 1017.8 |
| 20260902065404 | 72 | 355 | 0.0 | 1.0 | 0.00 | 0.00 | 0.00 | 90 | 1017.8 |
| 20260902064903 | 72 | 355 | 0.0 | 0.0 | 0.00 | 0.00 | 0.00 | 90 | 1017.8 |
| 20260902063904 | 72 | 355 | 0.0 | 0.0 | 0.00 | 0.00 | 0.00 | 89 | 1017.9 |
| 20260902063403 | 72 | 355 | 0.0 | 0.0 | 0.00 | 0.00 | 0.00 | 89 | 1017.9 |
| 20260902062902 | 73 | 355 | 0.0 | 0.0 | 0.00 | 0.00 | 0.00 | 89 | 1018.0 |
| 20260902062405 | 73 | 355 | 0.0 | 0.0 | 0.00 | 0.00 | 0.00 | 89 | 1018.0 |
| 20260902061902 | 73 | 355 | 0.0 | 0.0 | 0.00 | 0.00 | 0.00 | 90 | 1018.0 |
| 20260902061402 | 73 | 355 | 0.0 | 0.0 | 0.00 | 0.00 | 0.00 | 89 | 1018.0 |
| 20260902060904 | 73 | 355 | 0.0 | 1.0 | 0.00 | 0.00 | 0.00 | 89 | 1018.0 |